Probability
0 0 1 0 0 0 0 0 0 0 0 0 0 0 0 0 0 0 0 0 0 0 0 1 1 1 0 0 0 0 0 0 0 0 0 0 0 0 0 0 0 0 0 0 0 0 0 0 0
0 0 1 0 0 0 0 0 0 0 0 0 0 0 0 0 0 0 0 0 0 0 0 0 0 0 0 0 0 0 0 0 0 0 0 0 0 0 0 0 0 0 0 0 0 0 0 0 0
0 0 0 0 0 0 0 0 0 0 0 0 0 0 0 0 0 0 0 0 0 0 0 0 0 0 0 0 0 0 0 0 0 0 0 0 0 0 0 0 0 0 0 0 0 0 0 0 0
0 0 0 0 0 0 0 0 0 0 0 0 0 0 0 0 0 0 0 0 0 0 0 0 0 0 0 0 0 0 0 1 1 0 0 0 0 0 0 0 0 0 0 0 0 0 0 0 0
0 0 0 0 0 0 0 0 0 0 0 0 0 0 0 0 0 0 0 0 0 0 0 0 0 0 0 0 0 0 0 1 1 1 0 0 0 0 0 0 0 0 0 0 0 0 0 0 0
0 0 0 0 0 0 0 0 0 0 0 0 0 0 0 0 0 0 0 1 1 0 0 0 0 0 0 0 0 0 0 1 1 1 0 0 0 0 0 0 0 0 0 0 0 0 0 0 0
0 0 0 0 0 0 0 0 0 1 1 0 0 0 0 0 0 1 1 2 1 0 0 0 0 0 0 0 0 0 0 0 0 0 0 0 0 0 0 0 0 0 0 0 0 0 0 0 0
0 0 0 0 0 0 0 0 0 1 1 0 0 0 0 0 0 1 2 2 1 0 0 0 0 0 0 0 0 0 0 0 0 0 0 0 0 0 0 0 0 0 0 0 0 0 0 0 0
0 0 0 0 0 0 0 0 0 1 1 0 0 0 0 0 0 1 2 1 0 0 0 0 0 0 0 0 0 0 0 0 0 0 0 0 0 0 0 0 0 0 0 0 0 0 0 0 0
0 0 0 0 0 0 0 0 0 0 0 0 0 1 1 1 0 0 0 0 0 0 1 1 1 1 1 1 0 0 0 0 0 0 0 0 0 0 0 0 0 0 0 0 0 0 0 0 0
0 0 0 0 0 0 0 1 1 1 1 1 1 2 2 1 0 0 0 0 0 0 1 2 2 2 2 2 1 0 0 0 0 0 0 0 0 0 0 0 0 0 0 0 0 0 0 0 0
0 0 0 0 0 0 0 0 1 2 2 2 2 3 2 1 0 0 0 0 0 0 1 2 3 3 3 3 1 1 0 0 0 0 0 0 0 0 0 0 0 0 0 0 0 0 0 0 0
0 0 0 0 0 0 0 0 1 2 3 2 3 3 2 1 0 0 0 0 0 0 0 1 1 2 3 2 2 2 1 0 0 0 0 0 0 0 0 0 0 0 0 0 0 0 0 0 0
0 0 0 0 0 0 0 0 0 1 2 3 3 3 1 0 0 0 0 0 0 0 0 0 1 1 1 1 2 2 2 1 0 0 0 0 0 0 0 0 0 0 0 0 0 0 0 0 0
0 0 0 0 0 0 0 0 0 1 3 3 3 3 1 0 0 0 1 1 1 0 0 0 0 0 0 0 1 1 1 1 0 0 0 0 0 0 0 0 0 0 0 0 0 0 0 0 0
0 0 0 0 0 0 0 0 1 2 3 3 3 3 2 1 0 0 1 2 2 1 0 0 0 0 0 0 0 1 1 1 0 0 0 0 0 0 0 0 0 0 0 0 0 0 0 0 0
0 0 0 0 0 0 0 0 1 2 3 3 3 3 3 1 0 0 0 1 2 3 1 0 0 0 0 0 1 2 2 1 0 0 0 0 0 0 0 0 0 0 0 0 0 0 0 0 0
0 0 0 0 0 0 0 0 1 1 1 3 4 3 3 2 1 0 0 0 1 2 1 1 1 0 0 1 1 2 2 1 0 0 0 0 0 0 0 0 0 0 0 0 0 0 0 0 0
0 0 0 0 0 0 0 0 0 0 1 3 4 4 3 2 1 0 0 0 1 1 1 2 2 1 1 2 2 1 1 0 0 0 0 0 0 0 0 0 0 0 0 0 0 0 0 0 0
0 0 0 0 0 0 0 0 0 1 3 4 4 4 4 3 2 1 1 1 1 1 1 2 2 2 2 3 2 1 0 0 0 0 0 0 0 0 0 0 0 0 0 0 0 0 0 0 0
0 0 0 0 0 0 0 0 1 2 3 2 3 4 4 4 3 2 2 2 1 1 1 2 1 1 2 3 2 2 1 1 0 0 0 0 0 0 0 0 0 0 0 0 0 0 0 0 0
0 0 0 0 0 0 0 0 0 1 2 1 2 4 4 4 3 3 3 2 1 1 2 3 2 1 1 2 3 3 4 3 1 1 1 0 0 0 0 0 0 0 0 0 0 0 0 0 0
0 0 0 0 0 0 0 0 0 0 0 0 2 3 4 3 3 4 4 4 3 2 3 5 4 2 2 4 4 5 5 4 3 2 2 1 0 0 0 0 0 0 0 0 0 0 0 0 0
0 0 0 0 0 0 0 0 0 0 0 0 1 2 3 3 3 3 4 5 4 3 4 6 5 3 4 6 7 7 6 5 5 5 4 3 1 0 0 1 1 0 0 0 0 0 0 0 0
1 1 0 0 0 0 0 0 0 0 0 0 0 1 3 3 3 3 4 5 5 4 4 6 6 4 3 6 8 8 7 6 7 7 6 5 3 2 1 2 2 1 0 0 0 0 0 0 0
1 1 0 0 0 0 0 0 0 0 0 0 0 1 2 3 3 4 4 4 5 4 4 5 6 5 3 5 7 7 6 6 8 8 6 5 5 4 3 3 3 2 0 0 0 0 0 0 0
1 0 0 0 0 0 0 0 0 0 0 0 0 1 2 3 4 4 4 4 6 5 5 5 6 5 4 4 5 5 6 6 5 5 4 4 4 5 4 3 2 1 0 0 0 0 0 0 0
1 0 0 0 0 0 0 0 0 0 0 0 0 0 1 2 4 4 4 5 5 6 6 6 6 6 5 3 3 4 6 5 3 3 3 3 3 3 3 3 2 1 0 0 0 0 0 0 0
0 0 0 0 0 0 0 0 0 0 0 0 0 0 0 1 2 3 3 4 4 4 5 6 6 6 5 3 2 3 5 4 2 2 3 3 3 2 3 4 4 2 1 0 0 0 1 0 0
0 0 0 0 0 0 0 0 0 0 0 0 0 0 0 0 1 2 2 3 3 4 4 4 4 5 5 4 2 2 4 4 2 1 2 3 3 3 3 4 5 4 1 0 0 0 1 0 0
Wind_Speed
8 9 6 2 2 0 6 7 8 7 7 8 8 8 11 11 8 7 3 4 7 9 9 9 9 10 10 10 10 11 11 10 11 11 11 11 11 11 11 11 11 11 11 10 10 10 11 11 10
9 5 4 3 1 2 5 7 9 8 6 4 7 9 11 10 10 7 4 4 7 9 9 8 9 9 10 10 11 11 11 11 11 11 11 11 11 11 11 11 11 11 11 11 10 10 11 10 9
10 7 4 2 3 4 6 7 7 7 5 5 7 9 9 6 7 5 4 5 8 10 10 9 9 9 10 10 10 11 11 11 11 11 11 11 11 11 12 12 12 12 12 11 11 11 10 10 9
5 4 3 1 7 7 7 7 5 6 6 6 7 9 8 7 6 7 6 7 9 9 10 8 9 9 9 10 10 11 11 11 11 11 11 11 11 12 12 12 12 12 12 11 11 11 11 10 9
4 3 1 3 7 7 7 6 5 6 7 8 9 10 9 8 10 9 6 7 7 8 10 9 9 9 10 10 10 10 11 11 11 11 10 10 11 11 11 11 12 12 12 11 11 11 10 10 8
3 2 1 3 6 5 5 5 5 6 7 7 8 9 7 7 8 7 6 5 6 8 9 9 10 10 10 10 10 10 10 10 10 10 9 9 10 10 10 11 11 11 11 11 11 10 9 9 8
3 2 0 4 4 4 4 4 5 5 6 5 5 8 7 8 6 5 6 5 6 7 8 7 7 8 10 10 10 10 10 9 9 8 8 8 8 9 9 10 10 10 10 10 10 9 8 8 7
3 2 1 3 3 3 3 4 5 6 6 4 4 6 7 8 7 6 5 5 5 6 6 5 5 6 6 7 8 9 8 7 7 6 6 6 6 8 8 9 9 9 9 9 8 8 7 6 5
4 2 1 3 3 4 4 4 5 6 5 7 9 11 10 11 8 7 6 5 4 5 4 5 4 5 5 5 7 6 6 5 5 4 4 4 3 3 4 8 8 8 8 7 6 5 4 4 3
3 1 2 2 3 4 4 4 3 5 6 7 9 11 11 9 8 7 6 6 5 5 4 4 4 4 4 4 4 3 3 2 2 2 2 1 2 3 5 6 6 6 6 5 3 2 2 1 1
1 1 3 3 5 4 3 3 2 4 4 6 8 10 9 8 7 6 6 6 5 5 4 4 4 4 4 3 3 1 1 1 1 2 3 2 2 2 3 2 2 2 2 2 1 1 1 1 1
0 2 2 3 4 3 2 2 3 4 5 7 9 9 9 7 6 5 6 6 6 5 4 4 4 4 4 3 2 2 2 1 1 1 3 2 2 1 2 1 1 1 1 2 2 2 3 4 4
2 2 2 3 3 3 3 2 2 4 6 8 8 8 7 7 6 6 5 6 7 5 5 4 4 4 4 3 2 3 2 2 2 2 2 3 2 1 2 2 2 2 2 2 2 3 4 5 5
2 3 3 3 3 3 2 2 1 4 6 8 7 7 5 5 6 6 5 5 6 5 5 4 4 4 4 3 2 2 2 2 2 2 2 3 2 2 2 2 2 2 2 2 2 3 3 3 4
3 4 4 4 4 4 3 3 3 4 6 7 7 6 6 5 4 4 5 5 6 6 5 4 4 4 4 3 3 2 2 2 2 2 2 2 2 2 2 2 2 2 2 2 2 3 2 2 3
6 6 5 5 5 5 5 3 5 5 6 6 6 6 5 4 4 4 4 5 5 6 5 5 3 3 4 3 3 2 2 2 2 2 1 1 2 2 2 2 1 2 2 2 2 2 2 2 2
7 7 6 5 5 5 6 2 5 5 5 6 6 6 6 5 5 4 5 4 5 6 6 5 4 3 3 3 2 2 2 2 2 2 1 1 2 3 3 2 1 2 2 2 2 2 2 2 2
5 5 4 5 5 6 5 4 5 5 5 4 5 5 6 6 6 5 5 3 4 5 5 6 5 3 4 2 2 2 2 1 2 2 1 2 2 3 3 1 2 2 2 2 2 2 2 1 1
6 6 4 2 4 5 6 5 7 6 5 4 4 5 5 5 5 6 5 4 4 4 5 5 5 4 4 2 2 1 1 1 1 1 1 2 2 2 2 1 1 2 1 1 1 1 1 1 1
7 7 4 2 3 5 6 6 6 7 7 5 5 4 4 5 5 5 5 4 3 4 4 5 5 4 4 3 2 2 2 1 2 1 1 1 1 1 2 1 1 1 1 2 1 1 1 1 1
8 6 5 4 3 7 6 7 7 8 8 6 5 5 4 5 5 5 4 4 3 3 3 3 4 4 4 4 2 2 1 1 1 1 0 0 1 2 2 1 1 1 1 1 1 1 1 1 2
6 4 5 6 5 5 7 5 5 8 8 7 5 5 5 5 5 5 4 3 2 3 3 3 3 4 4 4 3 3 2 2 2 2 1 1 1 1 1 0 1 1 1 1 0 1 1 1 1
5 6 7 8 8 8 8 6 4 8 8 7 6 5 5 6 6 5 4 3 2 2 2 2 3 3 3 3 2 2 2 2 1 2 2 2 1 1 1 0 1 1 1 0 1 1 1 1 0
5 7 9 9 7 8 9 7 3 5 7 7 6 5 5 6 6 5 5 4 3 3 2 2 3 3 3 3 3 3 2 2 2 2 2 1 1 1 1 1 0 1 1 1 1 1 1 1 1
5 4 4 5 6 6 5 5 1 4 6 7 6 6 5 6 5 5 5 4 3 3 2 1 2 3 3 3 3 3 2 2 2 2 2 2 1 1 1 1 0 1 1 1 1 1 1 1 1
5 5 5 4 4 3 3 2 4 6 6 6 6 6 5 5 5 5 5 4 4 3 2 1 2 2 2 3 3 3 2 2 1 2 2 2 1 2 2 2 1 1 1 1 1 1 1 1 1
4 5 6 7 8 6 3 4 5 5 5 5 4 6 5 5 5 5 5 4 4 3 2 2 2 2 2 2 2 2 2 2 2 2 2 1 1 1 2 2 1 1 1 1 1 0 1 1 1
6 5 4 4 4 5 4 3 3 6 4 4 4 4 4 4 5 6 5 4 4 3 3 2 2 2 2 2 1 2 2 2 2 2 2 2 1 1 2 2 2 1 1 1 1 0 0 1 1
6 6 5 5 5 4 3 1 3 5 4 4 3 3 3 4 5 4 4 4 4 3 3 3 2 3 2 2 1 1 1 2 1 1 1 2 2 1 2 2 2 1 1 1 1 0 0 1 1
5 5 5 4 5 5 4 0 4 5 5 3 3 2 3 3 3 4 4 4 3 4 3 3 3 2 2 2 2 1 1 1 1 0 0 1 2 1 1 2 2 1 1 1 1 0 0 0 0
Wind_Direction
265 248 246 262 260 201 70 66 69 59 57 47 46 59 65 51 49 82 111 75 90 98 95 81 69 68 67 70 70 68 66 66 67 70 70 69 68 66 64 62 63 65 68 72 73 70 69 70 68
274 261 262 246 270 89 76 76 74 68 72 72 64 66 73 65 72 95 108 86 91 95 92 82 74 71 70 74 73 71 69 69 70 72 71 71 69 67 65 62 64 66 67 69 71 71 70 67 63
268 263 265 269 33 70 85 83 87 84 74 77 75 60 54 63 78 99 114 112 96 92 91 85 79 76 74 76 76 75 73 71 72 73 73 72 70 69 67 64 64 66 67 68 69 69 66 65 60
265 256 249 53 70 69 92 98 100 100 81 70 86 77 70 52 79 101 115 108 100 101 99 94 86 84 82 81 80 77 75 73 74 76 74 73 70 68 68 66 66 66 65 66 68 68 65 63 56
247 264 229 97 85 84 86 92 90 82 80 71 77 90 87 79 93 103 107 106 107 107 110 109 99 93 90 87 85 81 78 76 75 75 76 75 72 68 66 67 66 65 63 62 65 64 62 60 54
267 259 227 108 98 88 79 80 80 81 84 89 100 102 95 101 99 105 103 96 102 108 114 118 115 107 100 95 90 87 84 81 78 74 75 77 74 71 69 69 67 65 64 63 62 60 58 58 54
280 292 116 105 104 103 96 81 78 78 72 63 77 98 113 111 108 108 107 100 97 101 107 122 133 122 112 106 101 96 91 87 85 81 81 83 81 78 75 73 69 67 65 64 64 61 57 53 50
291 297 126 119 128 108 97 90 82 72 70 58 56 100 125 128 128 120 113 104 103 100 104 111 124 127 129 122 112 109 103 97 95 92 85 90 92 89 83 79 71 68 67 67 66 63 58 51 45
274 280 127 119 132 116 113 104 96 97 90 75 66 82 115 130 135 131 122 112 104 100 101 107 106 113 118 118 114 121 115 104 106 104 91 101 94 97 92 86 85 77 72 69 68 65 61 54 36
236 292 74 85 98 111 115 101 108 119 104 97 95 100 117 133 140 142 141 133 120 105 98 96 103 103 109 106 116 124 116 123 118 124 122 103 102 90 88 92 86 77 72 65 60 47 32 31 8
249 82 78 86 91 107 101 94 99 118 109 111 118 125 131 140 143 147 135 122 115 107 95 88 90 94 97 101 113 103 105 121 105 95 103 85 78 84 89 93 78 59 68 50 28 339 324 7 47
99 75 78 99 100 113 109 77 56 72 95 104 114 131 139 143 143 140 131 124 116 109 102 87 88 87 88 90 96 95 85 78 71 64 75 70 67 63 84 85 79 55 38 28 10 3 18 27 38
152 131 126 114 118 119 117 102 78 94 100 111 123 131 140 145 141 136 134 132 124 121 112 96 85 86 85 86 87 93 88 65 67 47 59 74 72 51 65 72 60 47 39 34 16 17 29 23 25
132 143 153 155 158 153 146 148 158 139 128 126 133 136 151 145 143 143 144 136 131 130 117 105 92 86 87 85 73 73 79 74 68 59 51 63 73 61 58 55 52 44 39 36 30 26 40 28 30
180 184 186 189 185 172 178 193 175 146 143 144 148 147 145 134 138 143 144 138 132 130 122 113 110 101 93 89 80 78 74 83 79 71 50 51 69 75 71 62 48 38 34 28 34 27 38 39 36
211 210 204 196 196 188 222 200 150 154 165 160 158 146 143 143 147 135 130 132 129 129 126 119 120 113 106 98 90 86 78 76 78 77 68 57 65 75 75 67 49 51 39 30 40 42 33 32 31
220 227 212 188 205 209 226 192 154 172 183 174 165 158 158 161 160 142 137 142 139 138 136 135 131 124 111 101 102 93 88 84 81 64 51 41 53 67 72 59 49 57 47 27 29 39 33 22 18
249 249 228 207 196 217 227 198 173 185 191 181 161 155 152 171 166 149 137 130 133 137 141 141 138 137 122 113 106 93 74 76 89 84 58 45 54 61 72 61 53 61 57 27 33 35 18 16 353
289 278 262 227 189 225 233 222 185 180 184 180 163 153 155 165 147 142 142 140 144 147 147 141 145 150 133 126 120 124 125 107 85 83 68 60 58 55 69 46 54 62 70 53 37 48 12 339 352
272 271 263 242 201 239 241 237 189 181 184 183 169 157 157 149 133 133 145 143 152 154 151 153 152 151 139 137 147 147 143 145 125 101 66 75 81 74 82 66 48 70 65 38 18 37 12 330 352
266 274 281 282 241 241 252 244 203 181 173 170 169 155 146 128 132 125 130 138 143 140 149 153 151 140 138 135 130 130 128 126 110 126 129 80 66 62 64 63 47 64 82 65 9 42 26 312 317
272 295 293 278 264 252 236 253 196 181 174 172 167 156 143 136 133 126 117 111 137 145 149 164 158 146 142 141 146 156 147 155 165 166 155 135 114 101 86 64 78 76 71 89 332 35 342 2 327
291 306 281 267 263 269 252 255 203 176 177 174 163 156 145 137 131 128 125 117 101 116 145 159 149 141 138 139 165 175 161 173 163 147 143 160 161 128 103 56 66 58 40 52 23 26 3 358 346
275 277 263 248 247 253 243 242 217 174 165 157 149 146 142 128 124 127 122 115 100 85 81 133 145 143 149 162 172 169 179 173 155 153 159 170 154 160 138 82 43 73 45 46 23 4 26 340 345
258 276 265 227 219 231 224 226 158 120 134 141 147 142 135 132 134 132 122 121 118 114 106 113 132 151 167 171 167 165 183 175 162 156 169 174 168 163 175 136 303 75 58 44 55 13 351 342 3
250 255 272 283 273 279 244 204 120 108 111 121 135 140 140 143 144 139 135 140 143 138 137 142 144 149 168 172 178 171 166 165 162 174 169 177 186 175 156 151 155 116 103 69 71 25 351 347 354
262 254 276 289 288 276 232 145 138 130 121 122 129 142 150 149 144 141 143 149 148 150 159 167 159 160 159 171 172 163 171 154 176 182 167 158 145 137 134 139 131 127 119 107 105 75 332 353 331
249 284 283 272 287 275 251 221 157 142 136 136 139 134 139 134 139 140 145 150 154 165 175 175 167 168 160 138 170 167 163 165 171 176 158 150 159 151 151 149 147 144 127 105 89 96 330 42 356
228 241 260 274 265 282 289 358 83 131 146 150 142 135 132 136 138 144 149 151 155 159 168 171 175 170 164 154 141 148 163 161 166 176 162 149 147 152 148 149 150 148 137 132 109 113 5 36 351
255 250 254 266 284 286 284 321 78 100 111 125 129 130 138 139 143 144 144 140 153 167 175 177 171 163 168 158 144 135 142 117 136 140 120 129 138 157 148 136 130 118 114 119 132 198 280 317 320